WMT75WB LRIA-EHEH

Flight info

Callsign WMT75WB
Flight time 2h 32m
Altitude 37000
Route ARPIG P133 TOMUC DCT KARIL DCT PITOK DCT ROMIS DCT GAVLI DCT KATCE DCT WRB DCT PISAP T883 ROTEK
Aircraft A320/M-SDE3FGHIRWY/LB1

Departure

Time 2026-04-24 05:37
Airport Iaşi International Airport (LRIA)

Arrival

Time 2026-04-24 08:09
Airport Eindhoven Airport (EHEH)
Time Latitude Longitude Altitude Speed Heading
2026-04-24 05:13 47.17530 27.61981 378 ft 0 kts 274°
2026-04-24 05:27 47.17529 27.61995 376 ft 4 kts 272°
2026-04-24 05:28 47.17530 27.62034 377 ft 4 kts 269°
2026-04-24 05:28 47.17527 27.62071 377 ft 4 kts 311°
2026-04-24 05:28 47.17518 27.62081 377 ft 1 kts 334°
2026-04-24 05:28 47.17518 27.62082 377 ft 0 kts 334°
2026-04-24 05:31 47.17521 27.62079 377 ft 2 kts 334°
2026-04-24 05:31 47.17538 27.62067 377 ft 4 kts 334°
2026-04-24 05:32 47.17566 27.62047 376 ft 5 kts 333°
2026-04-24 05:32 47.17606 27.62017 376 ft 7 kts 333°
2026-04-24 05:32 47.17659 27.61978 376 ft 10 kts 333°
2026-04-24 05:32 47.17726 27.61930 376 ft 12 kts 333°
2026-04-24 05:33 47.17786 27.61996 374 ft 14 kts 67°
2026-04-24 05:33 47.17828 27.62132 373 ft 16 kts 64°
2026-04-24 05:33 47.17919 27.62188 375 ft 16 kts 336°
2026-04-24 05:34 47.18102 27.62026 380 ft 15 kts 328°
2026-04-24 05:34 47.18192 27.61945 384 ft 16 kts 329°
2026-04-24 05:34 47.18289 27.61859 389 ft 17 kts 328°
2026-04-24 05:34 47.18390 27.61768 393 ft 18 kts 328°
2026-04-24 05:35 47.18498 27.61673 398 ft 18 kts 329°
2026-04-24 05:35 47.18609 27.61575 400 ft 19 kts 329°
2026-04-24 05:35 47.18726 27.61471 407 ft 20 kts 328°
2026-04-24 05:35 47.18845 27.61372 412 ft 19 kts 343°
2026-04-24 05:36 47.18929 27.61318 415 ft 8 kts 251°
2026-04-24 05:36 47.18894 27.61326 414 ft 10 kts 152°
2026-04-24 05:36 47.18638 27.61550 402 ft 81 kts 148°
2026-04-24 05:36 47.17969 27.62143 375 ft 141 kts 149°
2026-04-24 05:37 47.17027 27.62971 666 ft 163 kts 150°
2026-04-24 05:37 47.16039 27.63831 1284 ft 169 kts 150°
2026-04-24 05:37 47.15008 27.64699 1829 ft 172 kts 152°
2026-04-24 05:37 47.13926 27.65650 2108 ft 192 kts 151°
2026-04-24 05:38 47.12713 27.66737 2422 ft 215 kts 149°
2026-04-24 05:38 47.11364 27.67947 2705 ft 239 kts 149°
2026-04-24 05:38 47.09876 27.69279 3128 ft 259 kts 149°
2026-04-24 05:38 47.08309 27.70675 3909 ft 264 kts 150°
2026-04-24 05:39 47.06727 27.72084 4737 ft 268 kts 150°
2026-04-24 05:39 47.05117 27.73444 5524 ft 271 kts 159°
2026-04-24 05:39 47.03283 27.73795 6277 ft 267 kts 197°
2026-04-24 05:39 47.01695 27.72588 7047 ft 253 kts 234°
2026-04-24 05:40 47.00942 27.70397 7818 ft 238 kts 268°
2026-04-24 05:40 47.01038 27.68030 8607 ft 230 kts 293°
2026-04-24 05:40 47.01819 27.66034 9379 ft 226 kts 316°
2026-04-24 05:40 47.03134 27.64797 10124 ft 228 kts 341°
2026-04-24 05:41 47.04687 27.64238 10847 ft 231 kts 345°
2026-04-24 05:41 47.06266 27.63717 11578 ft 234 kts 346°
2026-04-24 05:41 47.07863 27.63191 12296 ft 236 kts 346°
2026-04-24 05:41 47.09476 27.62658 13014 ft 239 kts 346°
2026-04-24 05:42 47.11105 27.62121 13736 ft 241 kts 346°
2026-04-24 05:42 47.12751 27.61573 14383 ft 244 kts 346°
2026-04-24 05:42 47.14392 27.61022 15027 ft 245 kts 346°
2026-04-24 05:42 47.16061 27.60462 15670 ft 246 kts 346°
2026-04-24 05:43 47.17733 27.59899 16315 ft 247 kts 346°
2026-04-24 05:43 47.19427 27.59325 16966 ft 249 kts 346°
2026-04-24 05:43 47.21121 27.58750 17609 ft 250 kts 345°
2026-04-24 05:43 47.22730 27.57761 18220 ft 254 kts 329°
2026-04-24 05:44 47.24079 27.56020 18544 ft 270 kts 313°
2026-04-24 05:44 47.25092 27.53544 18772 ft 289 kts 304°
2026-04-24 05:44 47.26044 27.50902 19216 ft 294 kts 304°
2026-04-24 05:44 47.27010 27.48235 19716 ft 296 kts 304°
2026-04-24 05:45 47.27988 27.45549 20229 ft 298 kts 305°
2026-04-24 05:45 47.28976 27.42843 20748 ft 301 kts 305°
2026-04-24 05:45 47.29960 27.40155 21227 ft 303 kts 305°
2026-04-24 05:45 47.30978 27.37372 21713 ft 305 kts 305°
2026-04-24 05:46 47.31990 27.34606 22193 ft 308 kts 305°
2026-04-24 05:46 47.32663 27.32765 22509 ft 309 kts 305°
2026-04-24 05:46 47.34022 27.29040 23074 ft 315 kts 306°
2026-04-24 05:46 47.34733 27.27094 23170 ft 323 kts 305°
2026-04-24 05:47 47.36177 27.23135 23355 ft 339 kts 305°
2026-04-24 05:47 47.36941 27.21037 23449 ft 346 kts 305°
2026-04-24 05:47 47.38098 27.17850 23574 ft 357 kts 304°
2026-04-24 05:47 47.39283 27.14574 23761 ft 365 kts 304°
2026-04-24 05:48 47.40466 27.11284 24084 ft 369 kts 304°
2026-04-24 05:48 47.41677 27.07916 24438 ft 371 kts 305°
2026-04-24 05:48 47.42893 27.04538 24814 ft 374 kts 305°
2026-04-24 05:48 47.44116 27.01137 25181 ft 376 kts 305°
2026-04-24 05:49 47.45350 26.97701 25535 ft 378 kts 305°
2026-04-24 05:49 47.46587 26.94255 25894 ft 380 kts 306°
2026-04-24 05:49 47.47833 26.90780 26264 ft 383 kts 306°
2026-04-24 05:49 47.49081 26.87301 26622 ft 385 kts 306°
2026-04-24 05:50 47.50252 26.83713 26951 ft 394 kts 299°
2026-04-24 05:50 47.51005 26.79741 27274 ft 408 kts 288°
2026-04-24 05:50 47.51372 26.75534 27573 ft 414 kts 286°
2026-04-24 05:50 47.51714 26.71336 27905 ft 417 kts 286°
2026-04-24 05:51 47.52064 26.67065 28233 ft 419 kts 286°
2026-04-24 05:51 47.52418 26.62759 28562 ft 422 kts 286°
2026-04-24 05:51 47.52777 26.58446 28863 ft 425 kts 286°
2026-04-24 05:51 47.53140 26.54079 29179 ft 427 kts 286°
2026-04-24 05:52 47.53502 26.49702 29492 ft 430 kts 286°
2026-04-24 05:52 47.53863 26.45284 29851 ft 432 kts 286°
2026-04-24 05:52 47.54221 26.40864 30265 ft 431 kts 287°
2026-04-24 05:52 47.54575 26.36452 30658 ft 431 kts 287°
2026-04-24 05:53 47.54929 26.32053 31064 ft 430 kts 287°
2026-04-24 05:53 47.55282 26.27659 31472 ft 429 kts 287°
2026-04-24 05:53 47.55631 26.23274 31892 ft 428 kts 287°
2026-04-24 05:53 47.55975 26.18941 32313 ft 427 kts 287°
2026-04-24 05:54 47.56324 26.14513 32735 ft 426 kts 287°
2026-04-24 05:54 47.56662 26.10211 33136 ft 426 kts 287°
2026-04-24 05:54 47.57007 26.05799 33553 ft 425 kts 287°
2026-04-24 05:54 47.57340 26.01504 33956 ft 424 kts 287°
2026-04-24 05:55 47.57676 25.97153 34296 ft 424 kts 287°
2026-04-24 05:55 47.58011 25.92817 34601 ft 423 kts 287°
2026-04-24 05:55 47.58343 25.88482 34898 ft 423 kts 286°
2026-04-24 05:55 47.58675 25.84143 35198 ft 423 kts 286°
2026-04-24 05:56 47.59005 25.79794 35476 ft 423 kts 286°
2026-04-24 05:56 47.59329 25.75464 35745 ft 423 kts 285°
2026-04-24 05:56 47.59653 25.71139 36012 ft 423 kts 285°
2026-04-24 05:56 47.59980 25.66793 36280 ft 423 kts 285°
2026-04-24 05:57 47.60303 25.62466 36546 ft 422 kts 285°
2026-04-24 05:57 47.60622 25.58155 36797 ft 422 kts 285°
2026-04-24 05:57 47.60942 25.53815 36942 ft 423 kts 285°
2026-04-24 05:57 47.61265 25.49448 36966 ft 428 kts 285°
2026-04-24 05:58 47.61905 25.40660 36966 ft 433 kts 284°
2026-04-24 05:58 47.62537 25.31785 36969 ft 433 kts 284°
2026-04-24 05:59 47.63166 25.22874 36973 ft 434 kts 284°
2026-04-24 05:59 47.63794 25.13969 36971 ft 434 kts 284°
2026-04-24 06:00 47.64414 25.05057 36967 ft 434 kts 284°
2026-04-24 06:00 47.65023 24.96126 36964 ft 435 kts 284°
2026-04-24 06:01 47.65623 24.87178 36966 ft 436 kts 284°
2026-04-24 06:01 47.66219 24.78221 36966 ft 436 kts 284°
2026-04-24 06:02 47.66824 24.69262 36971 ft 436 kts 284°
2026-04-24 06:02 47.67419 24.60288 36960 ft 437 kts 284°
2026-04-24 06:03 47.67992 24.51341 36979 ft 438 kts 283°
2026-04-24 06:03 47.68552 24.42345 36980 ft 438 kts 283°
2026-04-24 06:04 47.69123 24.33333 36981 ft 438 kts 283°
2026-04-24 06:04 47.69687 24.24330 36981 ft 439 kts 283°
2026-04-24 06:05 47.70246 24.15290 36988 ft 439 kts 283°
2026-04-24 06:05 47.70787 24.06235 36988 ft 439 kts 283°
2026-04-24 06:06 47.71323 23.97243 36996 ft 440 kts 283°
2026-04-24 06:06 47.71857 23.88172 37002 ft 440 kts 283°
2026-04-24 06:07 47.72396 23.79091 37005 ft 440 kts 283°
2026-04-24 06:07 47.72916 23.70022 37001 ft 440 kts 283°
2026-04-24 06:08 47.73429 23.60947 36994 ft 440 kts 283°
2026-04-24 06:08 47.73934 23.51911 36993 ft 441 kts 283°
2026-04-24 06:09 47.74441 23.42814 36997 ft 442 kts 282°
2026-04-24 06:09 47.74937 23.33693 37002 ft 442 kts 282°
2026-04-24 06:10 47.75419 23.24575 37007 ft 443 kts 282°
2026-04-24 06:11 47.76129 23.10860 37025 ft 443 kts 282°
2026-04-24 06:11 47.76604 23.01757 37029 ft 444 kts 282°
2026-04-24 06:12 47.77069 22.92606 37032 ft 444 kts 282°
2026-04-24 06:12 47.77530 22.83422 37035 ft 445 kts 282°
2026-04-24 06:13 47.77982 22.74239 37034 ft 445 kts 282°
2026-04-24 06:13 47.78421 22.65037 37038 ft 446 kts 282°
2026-04-24 06:14 47.78856 22.55840 37044 ft 446 kts 281°
2026-04-24 06:14 47.79325 22.46676 37049 ft 442 kts 286°
2026-04-24 06:15 47.81023 22.38083 37047 ft 428 kts 299°
2026-04-24 06:15 47.83236 22.29860 37034 ft 428 kts 299°
2026-04-24 06:16 47.85440 22.21593 37038 ft 429 kts 299°
2026-04-24 06:16 47.87630 22.13325 37042 ft 429 kts 299°
2026-04-24 06:17 47.89815 22.05030 37057 ft 429 kts 299°
2026-04-24 06:17 47.91985 21.96782 37049 ft 430 kts 299°
2026-04-24 06:18 47.94165 21.88481 37051 ft 430 kts 298°
2026-04-24 06:18 47.96336 21.80153 37057 ft 430 kts 298°
2026-04-24 06:19 47.98137 21.73220 37055 ft 430 kts 298°
2026-04-24 06:19 48.00310 21.64869 37057 ft 431 kts 298°
2026-04-24 06:20 48.02472 21.56510 37061 ft 431 kts 298°
2026-04-24 06:20 48.04628 21.48146 37056 ft 431 kts 298°
2026-04-24 06:21 48.06771 21.39805 37051 ft 432 kts 298°
2026-04-24 06:21 48.08921 21.31410 37047 ft 432 kts 298°
2026-04-24 06:22 48.11065 21.22994 37041 ft 432 kts 298°
2026-04-24 06:22 48.13197 21.14566 37042 ft 433 kts 298°
2026-04-24 06:23 48.15328 21.06142 37049 ft 433 kts 298°
2026-04-24 06:23 48.17458 20.97698 37043 ft 433 kts 298°
2026-04-24 06:24 48.19578 20.89261 37043 ft 433 kts 298°
2026-04-24 06:24 48.21692 20.80817 37031 ft 433 kts 297°
2026-04-24 06:25 48.23802 20.72343 37032 ft 432 kts 297°
2026-04-24 06:25 48.25901 20.63880 37032 ft 432 kts 297°
2026-04-24 06:26 48.27997 20.55409 37026 ft 432 kts 297°
2026-04-24 06:26 48.30084 20.46936 37025 ft 433 kts 297°
2026-04-24 06:27 48.32160 20.38500 37022 ft 432 kts 299°
2026-04-24 06:27 48.34897 20.30609 37021 ft 424 kts 306°
2026-04-24 06:28 48.37773 20.22833 37020 ft 425 kts 306°
2026-04-24 06:28 48.40646 20.15055 37016 ft 425 kts 306°
2026-04-24 06:29 48.43510 20.07249 37023 ft 425 kts 306°
2026-04-24 06:29 48.46367 19.99433 37022 ft 426 kts 306°
2026-04-24 06:30 48.49217 19.91609 37022 ft 426 kts 306°
2026-04-24 06:30 48.52061 19.83771 37024 ft 425 kts 306°
2026-04-24 06:31 48.54906 19.75931 37024 ft 425 kts 306°
2026-04-24 06:31 48.57743 19.68093 37027 ft 425 kts 306°
2026-04-24 06:32 48.60560 19.60281 37032 ft 425 kts 306°
2026-04-24 06:32 48.63381 19.52416 37035 ft 425 kts 306°
2026-04-24 06:33 48.66193 19.44566 37046 ft 425 kts 305°
2026-04-24 06:33 48.69005 19.36698 37050 ft 424 kts 305°
2026-04-24 06:34 48.71800 19.28836 37051 ft 424 kts 305°
2026-04-24 06:34 48.74592 19.20971 37054 ft 423 kts 305°
2026-04-24 06:35 48.77380 19.13109 37056 ft 423 kts 305°
2026-04-24 06:35 48.80155 19.05230 37056 ft 423 kts 305°
2026-04-24 06:36 48.82925 18.97344 37064 ft 423 kts 305°
2026-04-24 06:36 48.85691 18.89465 37065 ft 422 kts 305°
2026-04-24 06:37 48.88455 18.81576 37069 ft 422 kts 305°
2026-04-24 06:37 48.91209 18.73681 37214 ft 422 kts 305°
2026-04-24 06:37 48.92577 18.69745 37554 ft 420 kts 305°
2026-04-24 06:38 48.93943 18.65808 37869 ft 419 kts 305°
2026-04-24 06:38 48.95299 18.61888 38143 ft 418 kts 305°
2026-04-24 06:38 48.96635 18.58022 38439 ft 417 kts 305°
2026-04-24 06:38 48.98002 18.54065 38723 ft 416 kts 305°
2026-04-24 06:39 48.99348 18.50168 38938 ft 416 kts 305°
2026-04-24 06:39 49.00679 18.46307 39060 ft 417 kts 304°
2026-04-24 06:39 49.02025 18.42399 39095 ft 417 kts 304°
2026-04-24 06:40 49.04716 18.34559 39092 ft 416 kts 304°
2026-04-24 06:40 49.07396 18.26735 39095 ft 416 kts 304°
2026-04-24 06:41 49.10067 18.18891 39097 ft 416 kts 304°
2026-04-24 06:41 49.12735 18.11030 39101 ft 418 kts 303°
2026-04-24 06:42 49.15277 18.03024 39105 ft 420 kts 302°
2026-04-24 06:42 49.17710 17.94909 39112 ft 420 kts 301°
2026-04-24 06:43 49.20149 17.86789 39122 ft 420 kts 301°
2026-04-24 06:43 49.22605 17.78682 39121 ft 419 kts 302°
2026-04-24 06:44 49.25062 17.70580 39127 ft 420 kts 301°
2026-04-24 06:44 49.27510 17.62474 39129 ft 420 kts 301°
2026-04-24 06:45 49.29950 17.54353 39127 ft 419 kts 301°
2026-04-24 06:45 49.32385 17.46214 39125 ft 419 kts 301°
2026-04-24 06:46 49.34815 17.38064 39131 ft 419 kts 301°
2026-04-24 06:46 49.37241 17.29929 39122 ft 419 kts 301°
2026-04-24 06:47 49.39661 17.21789 39124 ft 419 kts 301°
2026-04-24 06:47 49.42072 17.13644 39123 ft 419 kts 301°
2026-04-24 06:48 49.44476 17.05478 39120 ft 420 kts 301°
2026-04-24 06:48 49.46877 16.97303 39123 ft 420 kts 300°
2026-04-24 06:49 49.49269 16.89111 39121 ft 420 kts 300°
2026-04-24 06:49 49.51661 16.80920 39130 ft 420 kts 300°
2026-04-24 06:50 49.54047 16.72724 39132 ft 420 kts 300°
2026-04-24 06:50 49.56426 16.64513 39136 ft 420 kts 300°
2026-04-24 06:51 49.58801 16.56289 39140 ft 420 kts 300°
2026-04-24 06:51 49.61165 16.48067 39143 ft 420 kts 300°
2026-04-24 06:52 49.63142 16.41181 39142 ft 419 kts 300°
2026-04-24 06:52 49.65499 16.32948 39142 ft 419 kts 300°
2026-04-24 06:53 49.67847 16.24696 39138 ft 419 kts 300°
2026-04-24 06:53 49.70184 16.16457 39139 ft 419 kts 300°
2026-04-24 06:54 49.72509 16.08235 39139 ft 419 kts 299°
2026-04-24 06:54 49.74839 15.99978 39142 ft 419 kts 299°
2026-04-24 06:55 49.77163 15.91729 39142 ft 419 kts 299°
2026-04-24 06:55 49.79474 15.83460 39145 ft 418 kts 299°
2026-04-24 06:56 49.81779 15.75189 39145 ft 418 kts 299°
2026-04-24 06:56 49.84085 15.66917 39146 ft 418 kts 299°
2026-04-24 06:57 49.86392 15.58575 39145 ft 418 kts 298°
2026-04-24 06:57 49.88676 15.50290 39143 ft 418 kts 298°
2026-04-24 06:58 49.90962 15.41990 39138 ft 418 kts 298°
2026-04-24 06:58 49.93236 15.33690 39136 ft 418 kts 298°
2026-04-24 06:59 49.95511 15.25367 39132 ft 419 kts 298°
2026-04-24 06:59 49.97782 15.17039 39130 ft 419 kts 298°
2026-04-24 07:00 50.00045 15.08707 39129 ft 419 kts 298°
2026-04-24 07:00 50.02305 15.00357 39130 ft 419 kts 298°
2026-04-24 07:01 50.04553 14.91993 39136 ft 419 kts 298°
2026-04-24 07:01 50.06798 14.83616 39138 ft 420 kts 297°
2026-04-24 07:02 50.09041 14.75229 39133 ft 420 kts 297°
2026-04-24 07:02 50.10987 14.67922 39142 ft 420 kts 297°
2026-04-24 07:03 50.13224 14.59511 39150 ft 420 kts 297°
2026-04-24 07:03 50.15453 14.51084 39151 ft 421 kts 297°
2026-04-24 07:04 50.17686 14.42589 39154 ft 421 kts 297°
2026-04-24 07:04 50.19910 14.34132 39156 ft 421 kts 297°
2026-04-24 07:05 50.22122 14.25661 39157 ft 421 kts 296°
2026-04-24 07:05 50.24331 14.17181 39151 ft 422 kts 296°
2026-04-24 07:06 50.26537 14.08701 39148 ft 422 kts 296°
2026-04-24 07:06 50.28743 14.00195 39149 ft 422 kts 296°
2026-04-24 07:07 50.30933 13.91690 39148 ft 422 kts 296°
2026-04-24 07:07 50.34212 13.78923 39145 ft 422 kts 296°
2026-04-24 07:08 50.36389 13.70391 39150 ft 422 kts 295°
2026-04-24 07:08 50.38562 13.61853 39148 ft 422 kts 295°
2026-04-24 07:09 50.40729 13.53315 39151 ft 422 kts 295°
2026-04-24 07:09 50.42878 13.44761 39158 ft 422 kts 295°
2026-04-24 07:10 50.45041 13.36150 39158 ft 421 kts 295°
2026-04-24 07:10 50.47188 13.27598 39160 ft 422 kts 295°
2026-04-24 07:11 50.49330 13.19026 39166 ft 422 kts 295°
2026-04-24 07:11 50.51487 13.10464 39169 ft 421 kts 296°
2026-04-24 07:12 50.53849 13.02059 39168 ft 420 kts 297°
2026-04-24 07:12 50.56285 12.93708 39181 ft 420 kts 297°
2026-04-24 07:13 50.58678 12.85320 39191 ft 420 kts 296°
2026-04-24 07:13 50.61028 12.76897 39195 ft 420 kts 296°
2026-04-24 07:14 50.63369 12.68463 39195 ft 420 kts 296°
2026-04-24 07:14 50.65705 12.60034 39208 ft 420 kts 296°
2026-04-24 07:15 50.68045 12.51600 39207 ft 420 kts 296°
2026-04-24 07:15 50.70388 12.43105 39215 ft 420 kts 295°
2026-04-24 07:16 50.72707 12.34640 39214 ft 420 kts 295°
2026-04-24 07:16 50.75025 12.26180 39213 ft 420 kts 295°
2026-04-24 07:17 50.77341 12.17700 39218 ft 421 kts 295°
2026-04-24 07:17 50.79643 12.09197 39217 ft 421 kts 295°
2026-04-24 07:18 50.81948 12.00693 39214 ft 421 kts 295°
2026-04-24 07:18 50.84247 11.92185 39215 ft 421 kts 295°
2026-04-24 07:19 50.86534 11.83665 39216 ft 421 kts 294°
2026-04-24 07:19 50.88814 11.75133 39210 ft 421 kts 294°
2026-04-24 07:20 50.91096 11.66601 39210 ft 421 kts 294°
2026-04-24 07:20 50.93372 11.58063 39207 ft 421 kts 294°
2026-04-24 07:21 50.95637 11.49499 39210 ft 421 kts 294°
2026-04-24 07:21 50.97896 11.40934 39216 ft 421 kts 294°
2026-04-24 07:22 50.99785 11.33742 39222 ft 421 kts 294°
2026-04-24 07:22 51.02031 11.25163 39228 ft 421 kts 294°
2026-04-24 07:23 51.04279 11.16575 39229 ft 421 kts 293°
2026-04-24 07:23 51.06514 11.07980 39231 ft 421 kts 293°
2026-04-24 07:24 51.08741 10.99368 39235 ft 421 kts 293°
2026-04-24 07:24 51.10960 10.90755 39233 ft 421 kts 293°
2026-04-24 07:25 51.13185 10.82131 39231 ft 421 kts 293°
2026-04-24 07:25 51.15397 10.73505 39232 ft 421 kts 292°
2026-04-24 07:26 51.17597 10.64862 39233 ft 421 kts 292°
2026-04-24 07:26 51.19801 10.56174 39233 ft 420 kts 292°
2026-04-24 07:27 51.21985 10.47535 39237 ft 420 kts 292°
2026-04-24 07:27 51.24166 10.38881 39242 ft 420 kts 292°
2026-04-24 07:28 51.26266 10.30186 39242 ft 420 kts 290°
2026-04-24 07:28 51.28125 10.21330 39242 ft 420 kts 288°
2026-04-24 07:29 51.29913 10.12442 39243 ft 420 kts 288°
2026-04-24 07:29 51.31736 10.03565 39247 ft 420 kts 288°
2026-04-24 07:30 51.33586 9.94703 39251 ft 420 kts 288°
2026-04-24 07:30 51.35435 9.85828 39253 ft 421 kts 288°
2026-04-24 07:31 51.37267 9.76946 39255 ft 421 kts 288°
2026-04-24 07:31 51.39091 9.68035 39258 ft 421 kts 288°
2026-04-24 07:32 51.40913 9.59130 39260 ft 421 kts 288°
2026-04-24 07:32 51.42726 9.50215 39259 ft 421 kts 288°
2026-04-24 07:33 51.44527 9.41296 39261 ft 421 kts 287°
2026-04-24 07:33 51.46335 9.32303 39260 ft 421 kts 287°
2026-04-24 07:34 51.48127 9.23363 39262 ft 421 kts 287°
2026-04-24 07:34 51.49911 9.14421 39261 ft 421 kts 287°
2026-04-24 07:35 51.51306 9.05313 39262 ft 420 kts 281°
2026-04-24 07:35 51.52473 8.96133 39277 ft 420 kts 281°
2026-04-24 07:36 51.53640 8.86936 39287 ft 420 kts 281°
2026-04-24 07:36 51.54794 8.77739 39289 ft 420 kts 280°
2026-04-24 07:37 51.55938 8.68534 39025 ft 419 kts 280°
2026-04-24 07:37 51.56508 8.63952 38752 ft 418 kts 280°
2026-04-24 07:37 51.57076 8.59359 38474 ft 418 kts 280°
2026-04-24 07:38 51.57640 8.54778 38194 ft 418 kts 280°
2026-04-24 07:38 51.58204 8.50180 37915 ft 419 kts 280°
2026-04-24 07:38 51.58764 8.45583 37639 ft 420 kts 280°
2026-04-24 07:38 51.59323 8.40985 37369 ft 420 kts 280°
2026-04-24 07:39 51.59880 8.36356 37102 ft 421 kts 279°
2026-04-24 07:39 51.60436 8.31734 36838 ft 421 kts 279°
2026-04-24 07:39 51.60994 8.27107 36527 ft 422 kts 279°
2026-04-24 07:39 51.61553 8.22458 35868 ft 424 kts 279°
2026-04-24 07:40 51.62112 8.17803 35370 ft 422 kts 279°
2026-04-24 07:40 51.62651 8.13295 34949 ft 419 kts 279°
2026-04-24 07:40 51.63195 8.08704 34496 ft 417 kts 279°
2026-04-24 07:40 51.63742 8.04069 33999 ft 415 kts 279°
2026-04-24 07:41 51.64280 7.99527 33535 ft 411 kts 279°
2026-04-24 07:41 51.64815 7.95011 33074 ft 408 kts 279°
2026-04-24 07:41 51.65341 7.90557 32614 ft 404 kts 279°
2026-04-24 07:41 51.65862 7.86116 32162 ft 401 kts 279°
2026-04-24 07:42 51.66372 7.81726 31712 ft 398 kts 279°
2026-04-24 07:42 51.66874 7.77350 31265 ft 395 kts 279°
2026-04-24 07:42 51.67370 7.73015 30818 ft 393 kts 279°
2026-04-24 07:42 51.67863 7.68701 30387 ft 391 kts 279°
2026-04-24 07:43 51.68357 7.64403 29908 ft 388 kts 279°
2026-04-24 07:43 51.68843 7.60157 29489 ft 384 kts 279°
2026-04-24 07:43 51.69323 7.55950 29082 ft 380 kts 279°
2026-04-24 07:43 51.69795 7.51779 28674 ft 377 kts 279°
2026-04-24 07:44 51.70263 7.47637 28283 ft 374 kts 279°
2026-04-24 07:44 51.70725 7.43534 27894 ft 371 kts 279°
2026-04-24 07:44 51.71184 7.39455 27502 ft 368 kts 279°
2026-04-24 07:44 51.71640 7.35420 27130 ft 365 kts 279°
2026-04-24 07:45 51.72091 7.31413 26768 ft 362 kts 279°
2026-04-24 07:45 51.72533 7.27432 26392 ft 359 kts 279°
2026-04-24 07:45 51.72970 7.23487 26020 ft 356 kts 279°
2026-04-24 07:45 51.73402 7.19569 25647 ft 354 kts 279°
2026-04-24 07:46 51.73832 7.15682 25260 ft 351 kts 279°
2026-04-24 07:46 51.74259 7.11806 24881 ft 349 kts 279°
2026-04-24 07:46 51.74679 7.07954 24483 ft 348 kts 279°
2026-04-24 07:46 51.75097 7.04121 24087 ft 347 kts 279°
2026-04-24 07:47 51.75515 7.00286 23659 ft 346 kts 279°
2026-04-24 07:47 51.75930 6.96479 23231 ft 344 kts 279°
2026-04-24 07:47 51.76340 6.92691 22832 ft 341 kts 279°
2026-04-24 07:47 51.76751 6.88872 22419 ft 339 kts 279°
2026-04-24 07:48 51.77152 6.85133 22011 ft 337 kts 279°
2026-04-24 07:48 51.77549 6.81421 21609 ft 335 kts 279°
2026-04-24 07:48 51.77945 6.77718 21204 ft 334 kts 279°
2026-04-24 07:48 51.78338 6.74033 20803 ft 332 kts 279°
2026-04-24 07:49 51.78726 6.70368 20402 ft 331 kts 279°
2026-04-24 07:49 51.78977 6.66674 19999 ft 330 kts 270°
2026-04-24 07:49 51.78749 6.62994 19592 ft 330 kts 258°
2026-04-24 07:49 51.78027 6.59474 19176 ft 331 kts 246°
2026-04-24 07:50 51.77012 6.56128 18772 ft 332 kts 245°
2026-04-24 07:50 51.76000 6.52785 18324 ft 332 kts 245°
2026-04-24 07:50 51.74988 6.49433 17900 ft 331 kts 245°
2026-04-24 07:50 51.73983 6.46096 17489 ft 330 kts 245°
2026-04-24 07:51 51.72982 6.42771 17065 ft 329 kts 245°
2026-04-24 07:51 51.71982 6.39459 16667 ft 329 kts 245°
2026-04-24 07:51 51.70980 6.36147 16249 ft 328 kts 245°
2026-04-24 07:51 51.69977 6.32844 15841 ft 328 kts 245°
2026-04-24 07:52 51.68974 6.29546 15442 ft 328 kts 245°
2026-04-24 07:52 51.67970 6.26245 15024 ft 328 kts 245°
2026-04-24 07:52 51.66967 6.22943 14615 ft 328 kts 245°
2026-04-24 07:52 51.65965 6.19647 14211 ft 328 kts 245°
2026-04-24 07:53 51.64958 6.16347 13764 ft 328 kts 245°
2026-04-24 07:53 51.63950 6.13054 13347 ft 327 kts 245°
2026-04-24 07:53 51.62982 6.09753 12936 ft 325 kts 251°
2026-04-24 07:53 51.62216 6.06351 12526 ft 323 kts 252°
2026-04-24 07:54 51.61450 6.02964 12133 ft 322 kts 252°
2026-04-24 07:54 51.60680 5.99584 11750 ft 321 kts 252°
2026-04-24 07:54 51.59922 5.96270 11629 ft 311 kts 252°
2026-04-24 07:54 51.59430 5.94124 11450 ft 307 kts 252°
2026-04-24 07:55 51.58455 5.89864 11027 ft 305 kts 252°
2026-04-24 07:55 51.57959 5.87708 10797 ft 304 kts 252°
2026-04-24 07:55 51.57226 5.84522 10471 ft 303 kts 252°
2026-04-24 07:55 51.57042 5.83727 10395 ft 303 kts 252°
2026-04-24 07:56 51.56311 5.80563 10047 ft 301 kts 252°
2026-04-24 07:56 51.55594 5.77433 9700 ft 300 kts 252°
2026-04-24 07:56 51.54872 5.74287 9348 ft 299 kts 252°
2026-04-24 07:56 51.54152 5.71151 9001 ft 298 kts 252°
2026-04-24 07:57 51.53271 5.68211 8757 ft 296 kts 234°
2026-04-24 07:57 51.51817 5.65962 8458 ft 296 kts 220°
2026-04-24 07:57 51.50184 5.63947 8128 ft 295 kts 218°
2026-04-24 07:57 51.48541 5.61966 7799 ft 294 kts 218°
2026-04-24 07:58 51.46926 5.60026 7490 ft 293 kts 218°
2026-04-24 07:58 51.45290 5.58061 7181 ft 292 kts 218°
2026-04-24 07:58 51.43666 5.56109 6878 ft 291 kts 218°
2026-04-24 07:58 51.42049 5.54166 6571 ft 290 kts 218°
2026-04-24 07:59 51.40434 5.52224 6249 ft 289 kts 218°
2026-04-24 07:59 51.38829 5.50299 5956 ft 288 kts 218°
2026-04-24 07:59 51.37228 5.48382 5652 ft 286 kts 218°
2026-04-24 07:59 51.35639 5.46483 5447 ft 284 kts 218°
2026-04-24 08:00 51.34074 5.44613 5326 ft 285 kts 218°
2026-04-24 08:00 51.32509 5.42745 5189 ft 285 kts 218°
2026-04-24 08:00 51.30898 5.40822 5074 ft 284 kts 218°
2026-04-24 08:00 51.29297 5.38907 4958 ft 283 kts 218°
2026-04-24 08:01 51.27736 5.37040 4812 ft 283 kts 218°
2026-04-24 08:01 51.26166 5.35161 4687 ft 282 kts 218°
2026-04-24 08:01 51.24613 5.33304 4553 ft 274 kts 218°
2026-04-24 08:01 51.23136 5.31537 4415 ft 256 kts 219°
2026-04-24 08:02 51.22004 5.29487 4283 ft 240 kts 248°
2026-04-24 08:02 51.21717 5.26998 4131 ft 225 kts 282°
2026-04-24 08:02 51.22081 5.24596 3982 ft 221 kts 292°
2026-04-24 08:02 51.22694 5.22372 3833 ft 218 kts 301°
2026-04-24 08:03 51.23416 5.20242 3677 ft 218 kts 303°
2026-04-24 08:03 51.24154 5.18130 3533 ft 217 kts 303°
2026-04-24 08:03 51.25027 5.16192 3316 ft 212 kts 323°
2026-04-24 08:03 51.26328 5.15401 3187 ft 200 kts
2026-04-24 08:04 51.27523 5.16341 3101 ft 194 kts 51°
2026-04-24 08:04 51.28097 5.18261 3028 ft 191 kts 63°
2026-04-24 08:04 51.28942 5.19778 2936 ft 184 kts 27°
2026-04-24 08:04 51.30068 5.20758 2862 ft 184 kts 33°
2026-04-24 08:05 51.31124 5.21938 2792 ft 185 kts 34°
2026-04-24 08:05 51.32176 5.23119 2726 ft 184 kts 34°
2026-04-24 08:05 51.33219 5.24283 2666 ft 181 kts 34°
2026-04-24 08:05 51.34206 5.25384 2504 ft 165 kts 34°
2026-04-24 08:06 51.35118 5.26399 2300 ft 154 kts 34°
2026-04-24 08:06 51.35965 5.27344 2122 ft 145 kts 34°
2026-04-24 08:06 51.36784 5.28256 1909 ft 139 kts 34°
2026-04-24 08:06 51.37558 5.29118 1717 ft 137 kts 34°
2026-04-24 08:07 51.38336 5.29986 1525 ft 135 kts 34°
2026-04-24 08:07 51.39111 5.30844 1343 ft 135 kts 33°
2026-04-24 08:07 51.39885 5.31698 1193 ft 136 kts 35°
2026-04-24 08:07 51.40655 5.32575 986 ft 135 kts 34°
2026-04-24 08:08 51.41432 5.33446 775 ft 136 kts 34°
2026-04-24 08:08 51.42223 5.34319 553 ft 138 kts 33°
2026-04-24 08:08 51.43014 5.35192 391 ft 138 kts 33°
2026-04-24 08:09 51.44565 5.36950 76 ft 126 kts 34°
2026-04-24 08:09 51.45152 5.37601 68 ft 79 kts 35°
2026-04-24 08:09 51.45497 5.37988 69 ft 53 kts 35°
2026-04-24 08:09 51.45766 5.38295 70 ft 32 kts 35°
2026-04-24 08:10 51.45901 5.38452 72 ft 14 kts 43°
2026-04-24 08:10 51.45914 5.38474 68 ft 0 kts 46°
2026-04-24 08:10 51.45914 5.38475 68 ft 0 kts 46°
2026-04-24 08:10 51.45919 5.38480 69 ft 2 kts 34°
2026-04-24 08:11 51.45946 5.38509 71 ft 7 kts 33°
2026-04-24 08:11 51.46008 5.38575 74 ft 14 kts 33°
2026-04-24 08:11 51.46087 5.38677 70 ft 13 kts 69°
2026-04-24 08:11 51.46050 5.38801 69 ft 12 kts 94°
2026-04-24 08:12 51.46045 5.38826 72 ft 5 kts 130°
2026-04-24 08:12 51.46004 5.38911 69 ft 11 kts 126°
2026-04-24 08:12 51.45941 5.38985 72 ft 13 kts 184°
2026-04-24 08:12 51.45872 5.38924 71 ft 6 kts 216°
2026-04-24 08:13 51.45827 5.38872 64 ft 9 kts 216°
2026-04-24 08:13 51.45768 5.38812 69 ft 9 kts 192°
2026-04-24 08:13 51.45726 5.38882 72 ft 6 kts 127°
2026-04-24 08:13 51.45719 5.38897 71 ft 0 kts 127°